< < Back
Terminal Aerodrome Forecast


Current Version              Previous Versions:   1  2  3  4  5  6  7  8  9  

Terminal Aerodrome Forecast

072
FTUS42 KFFC 021009 AAA
TAFFTY
TAF AMD
KFTY 021009Z 0210/0306 25003KT P6SM BKN040 BKN110
     FM021500 22008KT P6SM SCT040 BKN150
     FM022000 22009KT 4SM -TSRA BR BKN025CB
     FM030300 23006KT P6SM BKN040
     FM030500 00000KT 4SM BR SCT009 BKN015=

Latest METAR

359
SAUS70 KWBC 021000 RRJ
MTRFTY
METAR KFTY 020953Z 00000KT 10SM OVC044 19/18 A3001 RMK AO2 SLP155
T01890178


USA.gov is the U.S. government's official web portal to all federal, state and local government web resources and services.